Torna al catalogo

SL-12 DEB

AttivoMEO
NORAD 20044·DEBRIS·🇷🇺 Russia

Lanciato May 31, 1989 da Baikonur Cosmodrome

Loading…

Prossimi Passaggi (prossime 24 ore)

TLE

In scadenzaSource: Space-Track

Epoca: Aug 29, 2026, 04:27 UTC

1 20044U 89039F   26241.18542560 -.00000015  00000-0  00000+0 0  9991
2 20044  64.8852 308.0084 0022669 212.7885 190.6375  2.13204897288214

Traccia SL-12 DEB in tempo reale con AllMySat

Download on the App Store